Blythe, CA

7:49 AM PDT on July 21, 2017 (GMT -0700)
Blythe

Weather History for KBLH - September, 2012

Change the Weather History Date:

Wednesday, September 19, 2012

  Actual Average Record
Temperature  
Mean Temperature 88 °F -  
Max Temperature 105 °F 98 °F 109 °F (1980)
Min Temperature 73 °F 71 °F 59 °F (1993)
Cooling Degree Days 24    
Growing Degree Days 38 (Base 50)    
Moisture  
Dew Point 46 °F    
Average Humidity 23    
Maximum Humidity 35    
Minimum Humidity 12    
Precipitation  
Precipitation 0.00 in - - ()
Sea Level Pressure  
Sea Level Pressure 29.85 in    
Wind  
Wind Speed 3 mph (WSW)    
Max Wind Speed 8 mph    
Max Gust Speed -    
Visibility 10 miles    
Events      
Averages and records for this station are not official NWS values.
T = Trace of Precipitation, MM = Missing Value Source: NWS Daily Summary

Daily Weather History Graph

Daily Weather History Graph

Search for Another Location

Airport or City:

Trip Planner

Search our weather history database for the weather conditions in past years. The results will help you decide how hot, cold, wet, or windy it might be!

Date:

Astronomy

Sep. 19, 2012 Rise Set
Actual Time 6:25 AM PDT 6:38 PM PDT
Civil Twilight 6:00 AM PDT 7:03 PM PDT
Nautical Twilight 5:31 AM PDT 7:32 PM PDT
Astronomical Twilight 5:01 AM PDT 8:02 PM PDT
Moon 10:25 AM PDT (9/19) 9:07 PM PDT (9/19)
Length of Visible Light 13h 03m
Length of Day
12h 13m
Waxing Crescent, 18% of the Moon is Illuminated
Sep 19
Waxing Crescent
Sep 22
First Quarter
Sep 29
Full
Oct 8
Last Quarter
Oct 15
New

Hourly Weather History & Observations

Time (PDT) Temp. Heat Index Dew Point Humidity Pressure Visibility Wind Dir Wind Speed Gust Speed Precip Events Conditions
12:52 AM 82.9 °F - 48.0 °F 29% 29.85 in 10.0 mi SSE 3.5 mph - N/A   Clear
1:52 AM 80.1 °F - 46.9 °F 31% 29.85 in 10.0 mi Calm Calm - N/A   Clear
2:52 AM 78.1 °F - 46.9 °F 33% 29.85 in 9.0 mi NNW 5.8 mph - N/A   Clear
4:52 AM 75.0 °F - 45.0 °F 34% 29.85 in 10.0 mi Calm Calm - N/A   Clear
5:52 AM 75.0 °F - 45.0 °F 34% 29.86 in 10.0 mi NW 3.5 mph - N/A   Clear
6:52 AM 73.9 °F - 45.0 °F 35% 29.88 in 10.0 mi North 5.8 mph - N/A   Clear
7:52 AM 81.0 °F - 46.0 °F 29% 29.89 in 10.0 mi WSW 3.5 mph - N/A   Clear
8:52 AM 84.9 °F - 48.0 °F 28% 29.90 in 10.0 mi Calm Calm - N/A   Clear
9:52 AM 91.0 °F - 46.0 °F 21% 29.91 in 10.0 mi East 3.5 mph - N/A   Clear
10:52 AM 93.0 °F 90.6 °F 53.1 °F 26% 29.91 in 10.0 mi ESE 4.6 mph - N/A   Clear
11:52 AM 98.1 °F - 46.0 °F 17% 29.89 in 10.0 mi East 3.5 mph - N/A   Clear
12:52 PM 99.0 °F - 45.0 °F 16% 29.87 in 10.0 mi Calm Calm - N/A   Clear
1:52 PM 102.9 °F - 46.0 °F 15% 29.84 in 10.0 mi Calm Calm - N/A   Clear
2:52 PM 102.9 °F - 43.0 °F 13% 29.82 in 10.0 mi Calm Calm - N/A   Clear
3:52 PM 104.0 °F - 42.1 °F 12% 29.80 in 10.0 mi South 4.6 mph - N/A   Clear
4:52 PM 104.0 °F - 42.1 °F 12% 29.79 in 10.0 mi Calm Calm - N/A   Clear
6:52 PM 100.0 °F - 43.0 °F 14% 29.79 in 10.0 mi West 3.5 mph - N/A   Clear
7:52 PM 96.1 °F - 44.1 °F 17% 29.80 in 10.0 mi Calm Calm - N/A   Clear
8:52 PM 93.9 °F - 45.0 °F 18% 29.82 in 10.0 mi WSW 6.9 mph - N/A   Clear
9:52 PM 93.0 °F - 46.0 °F 20% 29.83 in 10.0 mi WSW 8.1 mph - N/A   Clear
10:52 PM 91.9 °F - 46.0 °F 21% 29.83 in 10.0 mi West 5.8 mph - N/A   Clear